Flag for U.S.A. Weather past 2 weeks in Bloomington, Illinois, U.S.A.

Now
82 °F

Partly sunny.


Feels Like: 86 °F
Forecast: 65 / 82 °F
Wind: 7 mph from Northeast

Location: Bloomington / Normal

Current Time: Aug 30, 2015 at 6:11:19 PM

Latest Report: Aug 30, 2015 at 5:56 PM


Visibility: 10 mi

Pressure: 29.99 "Hg

Humidity: 69%

Dew point: 71 °F

Location of BloomingtonLocation

Historic Weather in Bloomington — Graph

°F

Bloomington temperature yesterday

Maximum temperature yesterday: 80 °F (at 12:56 PM)
Minimum temperature yesterday: 65 °F (at 12:56 AM)
Average temperature yesterday: 72 °F

Past Weeks' High & Low Weather Summary

 TemperatureHumidityPressure
High89 °F (Aug 16, 3:56 PM)100% (Aug 18, 1:56 AM)30.21 "Hg (Aug 18, 1:56 AM)
Low52 °F (Aug 27, 1:56 AM)40% (Aug 20, 2:56 PM)29.64 "Hg (Aug 19, 3:56 AM)
Average70 °F77%30.01 "Hg
* Reported Aug 15 3:56 PM — Aug 30 3:56 PM, Bloomington, Weather by CustomWeather, © 2015

Note: Actual official high and low records may vary slightly from our data, if they occured in-between our weather recording intervals... More about our weather records

Advertising

Bloomington weather history for previous 24 hours

 ConditionsComfort  
Time TempWeatherWind HumidityBarometerVisibility
3:56 PM
Sun, Aug 30
85 °FPassing clouds.6 mph61%30.00 "Hg10 mi
2:56 PM82 °FBroken clouds.6 mph69%30.01 "Hg10 mi
1:56 PM82 °FScattered clouds.6 mph69%30.03 "Hg10 mi
12:56 PM79 °FScattered clouds.3 mph76%30.05 "Hg7 mi
11:56 AM76 °FPartly sunny.5 mph85%30.06 "Hg4 mi
10:56 AM72 °FFog.6 mph93%30.07 "Hg2 mi
9:57 AM70 °FFog.5 mph100%30.10 "Hg1 mi
8:56 AM69 °FFog.7 mph100%30.05 "Hg0 mi
7:56 AM68 °FFog.6 mph100%30.04 "Hg0 mi
6:56 AM68 °FFog.5 mph100%30.03 "Hg0 mi
6:03 AM68 °FFog.3 mph100%30.04 "Hg2 mi
5:56 AM68 °FFog.No wind100%30.01 "Hg0 mi
4:56 AM68 °FFog.3 mph100%30.00 "Hg0 mi
3:56 AM68 °FFog.3 mph100%30.00 "Hg2 mi
3:02 AM66 °FFog.3 mph100%30.03 "Hg1 mi
2:56 AM68 °FFog.3 mph100%29.99 "Hg1 mi
2:03 AM70 °FFog.3 mph100%30.03 "Hg1 mi
1:56 AM69 °FFog.No wind100%29.99 "Hg1 mi
12:56 AM71 °FFog.3 mph97%30.00 "Hg6 mi
11:56 PM
Sat, Aug 29
73 °FPartly cloudy.No wind91%30.01 "Hg10 mi
10:56 PM72 °FOvercast.5 mph93%30.01 "Hg10 mi
9:56 PM73 °FOvercast.6 mph93%30.01 "Hg10 mi
8:56 PM74 °FOvercast.5 mph90%30.01 "Hg10 mi
7:56 PM74 °FScattered clouds.3 mph88%29.99 "Hg10 mi
6:56 PM75 °FPassing clouds.No wind85%29.98 "Hg10 mi
Weather by CustomWeather, © 2015

See weather overviewHow to use our weather pages